Location: *
(2.5500°S, 65.9667°W)
Time: 04:33:15
(UTC+00:00)

DELTA-4 R/B - Pass Details

Date: 28 May 2022
Orbit: 448 x 34502 km, 13.4° (Epoch: 04 July)

Event Time Altitude Azimuth Distance (km) Brightness Sun altitude
Rises 21:53:25 0° 255° (WSW) 3,470 7.4 5.5°
Reaches altitude 10° 21:54:57 10° 249° (WSW) 2,948 6.9 5.2°
Maximum altitude 05:28:06 49° 71° (ENE) 27,995 10.7 -64.9°
Drops below altitude 10° 07:18:37 10° 72° (ENE) 12,285 9.7 -42.9°
Sets 07:25:16 0° 73° (ENE) 11,537 9.8 -41.4°
